When you browse on this site, cookies collect data to enhance your experience and personalize the content and advertising you see.
Visit our Privacy Policy to learn more. By continuing to use the site, you agree to this use of cookies and data.
  • In Schweiz
  • Länderverzeichnis
  • Für 7 Tage
  • Wassertemperatur
  • Satellitenkarten
  • Wetterkarte
  • Widgets
  • user-avatar
    Anmelden

    Stündliche Wetter Plavynyshche

    Heute, 22 Juli, Montag

    Zeit Temperatur Niederschläge Wind Luftdruck Luftfeuchtigkeit
    00:00 +20°C° 0 mm 1 m/S 751 mmHg 75%
    01:00 +20°C° 0 mm 1 m/S 751 mmHg 77%
    02:00 +19°C° 0 mm 1 m/S 751 mmHg 79%
    03:00 +19°C° 0 mm 1 m/S 751 mmHg 80%
    04:00 +19°C° 0 mm 1 m/S 751 mmHg 81%
    05:00 +18°C° 0 mm 2 m/S 751 mmHg 81%
    06:00 +20°C° 0 mm 2 m/S 751 mmHg 77%
    07:00 +23°C° 0 mm 2 m/S 751 mmHg 73%
    08:00 +25°C° 0 mm 3 m/S 751 mmHg 69%
    09:00 +26°C° 0.7 mm 3 m/S 751 mmHg 66%
    10:00 +27°C° 0.7 mm 4 m/S 750 mmHg 62%
    11:00 +28°C° 0.7 mm 4 m/S 750 mmHg 59%
    12:00 +28°C° 0.4 mm 4 m/S 750 mmHg 57%
    13:00 +29°C° 0.4 mm 4 m/S 750 mmHg 55%
    14:00 +29°C° 0.4 mm 4 m/S 749 mmHg 53%
    15:00 +27°C° 2.2 mm 4 m/S 749 mmHg 65%
    16:00 +25°C° 2.2 mm 5 m/S 749 mmHg 77%
    17:00 +21°C° 2.2 mm 5 m/S 748 mmHg 88%
    18:00 +21°C° 1.3 mm 4 m/S 748 mmHg 91%
    19:00 +20°C° 1.3 mm 3 m/S 748 mmHg 93%
    20:00 +19°C° 1.3 mm 2 m/S 748 mmHg 95%
    21:00 +19°C° 0 mm 2 m/S 748 mmHg 95%
    22:00 +19°C° 0 mm 2 m/S 748 mmHg 95%
    23:00 +19°C° 0 mm 2 m/S 748 mmHg 95%

    Morgen, 23 Juli, Dienstag

    Zeit Temperatur Niederschläge Wind Luftdruck Luftfeuchtigkeit
    00:00 +18°C° 0 mm 2 m/S 748 mmHg 96%
    01:00 +18°C° 0 mm 2 m/S 747 mmHg 96%
    02:00 +17°C° 0 mm 2 m/S 747 mmHg 96%
    03:00 +17°C° 0 mm 2 m/S 747 mmHg 96%
    04:00 +17°C° 0 mm 2 m/S 747 mmHg 97%
    05:00 +17°C° 0 mm 2 m/S 747 mmHg 97%
    06:00 +18°C° 0 mm 3 m/S 747 mmHg 95%
    07:00 +19°C° 0 mm 3 m/S 747 mmHg 93%
    08:00 +19°C° 0 mm 3 m/S 747 mmHg 90%
    09:00 +20°C° 0 mm 3 m/S 747 mmHg 85%
    10:00 +21°C° 0 mm 3 m/S 748 mmHg 80%
    11:00 +22°C° 0 mm 3 m/S 748 mmHg 74%
    12:00 +22°C° 0 mm 4 m/S 747 mmHg 74%
    13:00 +22°C° 0 mm 4 m/S 747 mmHg 74%
    14:00 +22°C° 0 mm 4 m/S 747 mmHg 74%
    15:00 +21°C° 0 mm 4 m/S 747 mmHg 75%
    16:00 +21°C° 0 mm 4 m/S 747 mmHg 76%
    17:00 +20°C° 0 mm 4 m/S 747 mmHg 77%
    18:00 +19°C° 0 mm 3 m/S 747 mmHg 80%
    19:00 +18°C° 0 mm 2 m/S 747 mmHg 83%
    20:00 +18°C° 0 mm 1 m/S 747 mmHg 87%
    21:00 +18°C° 0 mm 1 m/S 747 mmHg 88%
    22:00 +16°C° 0 mm 1 m/S 747 mmHg 89%
    23:00 +16°C° 0 mm 1 m/S 747 mmHg 90%

    übermorgen, 24 Juli, Mittwoch

    Zeit Temperatur Niederschläge Wind Luftdruck Luftfeuchtigkeit
    00:00 +16°C° 0 mm 1 m/S 747 mmHg 88%
    01:00 +16°C° 0 mm 1 m/S 746 mmHg 87%
    02:00 +16°C° 0 mm 1 m/S 746 mmHg 86%
    03:00 +16°C° 0 mm 1 m/S 746 mmHg 86%
    04:00 +16°C° 0 mm 1 m/S 746 mmHg 86%
    05:00 +18°C° 0 mm 1 m/S 746 mmHg 86%
    06:00 +19°C° 0 mm 1 m/S 746 mmHg 83%
    07:00 +19°C° 0 mm 1 m/S 746 mmHg 80%
    08:00 +20°C° 0 mm 1 m/S 746 mmHg 76%
    09:00 +21°C° 0.3 mm 1 m/S 746 mmHg 75%
    10:00 +20°C° 0.3 mm 2 m/S 746 mmHg 74%
    11:00 +20°C° 0.3 mm 2 m/S 746 mmHg 73%
    12:00 +20°C° 0.2 mm 3 m/S 746 mmHg 76%
    13:00 +19°C° 0.2 mm 3 m/S 746 mmHg 79%
    14:00 +19°C° 0.2 mm 3 m/S 746 mmHg 82%
    15:00 +18°C° 0 mm 3 m/S 746 mmHg 82%
    16:00 +18°C° 0 mm 3 m/S 746 mmHg 82%
    17:00 +18°C° 0 mm 3 m/S 746 mmHg 83%
    18:00 +17°C° 0 mm 2 m/S 746 mmHg 83%
    19:00 +17°C° 0 mm 2 m/S 746 mmHg 84%
    20:00 +16°C° 0 mm 2 m/S 746 mmHg 84%
    21:00 +16°C° 0.1 mm 2 m/S 746 mmHg 86%
    22:00 +16°C° 0.1 mm 2 m/S 746 mmHg 88%
    23:00 +16°C° 0.1 mm 3 m/S 746 mmHg 90%

    25 Juli, Donnerstag

    Zeit Temperatur Niederschläge Wind Luftdruck Luftfeuchtigkeit
    00:00 +16°C° 0.5 mm 3 m/S 746 mmHg 92%
    01:00 +16°C° 0.5 mm 3 m/S 746 mmHg 94%
    02:00 +15°C° 0.5 mm 4 m/S 746 mmHg 96%
    03:00 +16°C° 0 mm 3 m/S 746 mmHg 95%
    04:00 +16°C° 0 mm 3 m/S 746 mmHg 95%
    05:00 +16°C° 0 mm 3 m/S 746 mmHg 95%
    06:00 +17°C° 0 mm 3 m/S 747 mmHg 93%
    07:00 +17°C° 0 mm 3 m/S 747 mmHg 91%
    08:00 +18°C° 0 mm 2 m/S 747 mmHg 89%
    09:00 +19°C° 0.1 mm 3 m/S 747 mmHg 83%
    10:00 +20°C° 0.1 mm 3 m/S 747 mmHg 77%
    11:00 +22°C° 0.1 mm 3 m/S 748 mmHg 71%
    12:00 +22°C° 0.2 mm 4 m/S 747 mmHg 71%
    13:00 +23°C° 0.2 mm 4 m/S 747 mmHg 71%
    14:00 +23°C° 0.2 mm 5 m/S 747 mmHg 70%
    15:00 +23°C° 0.4 mm 4 m/S 747 mmHg 71%
    16:00 +23°C° 0.4 mm 4 m/S 747 mmHg 71%
    17:00 +24°C° 0.4 mm 3 m/S 747 mmHg 72%
    18:00 +22°C° 0.1 mm 3 m/S 747 mmHg 77%
    19:00 +20°C° 0.1 mm 3 m/S 747 mmHg 82%
    20:00 +19°C° 0.1 mm 3 m/S 748 mmHg 87%
    21:00 +19°C° 0 mm 3 m/S 748 mmHg 90%
    22:00 +18°C° 0 mm 3 m/S 748 mmHg 92%
    23:00 +18°C° 0 mm 4 m/S 748 mmHg 95%

    26 Juli, Freitag

    Zeit Temperatur Niederschläge Wind Luftdruck Luftfeuchtigkeit
    00:00 +18°C° 0.2 mm 4 m/S 748 mmHg 95%
    01:00 +18°C° 0.2 mm 4 m/S 748 mmHg 96%
    02:00 +18°C° 0.2 mm 4 m/S 748 mmHg 96%
    03:00 +18°C° 0.2 mm 4 m/S 748 mmHg 96%
    04:00 +17°C° 0.2 mm 5 m/S 748 mmHg 95%
    05:00 +17°C° 0.2 mm 5 m/S 748 mmHg 95%
    06:00 +17°C° 0.1 mm 5 m/S 748 mmHg 94%
    07:00 +17°C° 0.1 mm 5 m/S 748 mmHg 94%
    08:00 +19°C° 0.1 mm 5 m/S 749 mmHg 93%
    09:00 +19°C° 0 mm 5 m/S 749 mmHg 92%
    10:00 +19°C° 0 mm 5 m/S 749 mmHg 90%
    11:00 +19°C° 0 mm 5 m/S 749 mmHg 89%
    12:00 +21°C° 0.1 mm 5 m/S 749 mmHg 83%
    13:00 +23°C° 0.1 mm 5 m/S 749 mmHg 77%
    14:00 +25°C° 0.1 mm 5 m/S 749 mmHg 71%
    15:00 +25°C° 0.4 mm 4 m/S 748 mmHg 72%
    16:00 +25°C° 0.4 mm 4 m/S 748 mmHg 73%
    17:00 +25°C° 0.4 mm 4 m/S 748 mmHg 74%
    18:00 +23°C° 0.2 mm 4 m/S 748 mmHg 79%
    19:00 +22°C° 0.2 mm 4 m/S 748 mmHg 84%
    20:00 +20°C° 0.2 mm 4 m/S 748 mmHg 89%
    21:00 +20°C° 0 mm 4 m/S 748 mmHg 91%
    22:00 +19°C° 0 mm 4 m/S 748 mmHg 92%
    23:00 +18°C° 0 mm 3 m/S 748 mmHg 93%

    27 Juli, Samstag

    Zeit Temperatur Niederschläge Wind Luftdruck Luftfeuchtigkeit
    00:00 +18°C° 0 mm 3 m/S 748 mmHg 93%
    01:00 +17°C° 0 mm 3 m/S 747 mmHg 94%
    02:00 +17°C° 0 mm 3 m/S 747 mmHg 94%
    03:00 +17°C° 0 mm 3 m/S 747 mmHg 94%
    04:00 +16°C° 0 mm 3 m/S 747 mmHg 93%
    05:00 +16°C° 0 mm 3 m/S 748 mmHg 93%
    06:00 +17°C° 0 mm 4 m/S 748 mmHg 87%
    07:00 +19°C° 0 mm 4 m/S 748 mmHg 81%
    08:00 +20°C° 0 mm 4 m/S 748 mmHg 75%
    09:00 +21°C° 0 mm 5 m/S 748 mmHg 71%
    10:00 +22°C° 0 mm 5 m/S 748 mmHg 67%
    11:00 +23°C° 0 mm 5 m/S 748 mmHg 63%
    12:00 +23°C° 0 mm 5 m/S 747 mmHg 62%
    13:00 +23°C° 0 mm 5 m/S 747 mmHg 61%
    14:00 +23°C° 0 mm 5 m/S 747 mmHg 60%
    15:00 +23°C° 0 mm 4 m/S 746 mmHg 62%
    16:00 +25°C° 0 mm 4 m/S 746 mmHg 63%
    17:00 +25°C° 0 mm 4 m/S 746 mmHg 64%
    18:00 +24°C° 0 mm 3 m/S 746 mmHg 70%
    19:00 +21°C° 0 mm 3 m/S 746 mmHg 76%
    20:00 +20°C° 0 mm 2 m/S 746 mmHg 82%
    21:00 +20°C° 0 mm 2 m/S 745 mmHg 85%
    22:00 +19°C° 0 mm 2 m/S 745 mmHg 88%
    23:00 +19°C° 0 mm 3 m/S 745 mmHg 92%
    Mehr zeigen